sat.trackr.live / text

‹ back to catalog

QIANFAN-102

NORAD 66044 · 2025-233M

PAYLOAD ACTIVE UNKNOWN

§ Identity

Operator
Country
PRC
Launch date
2025-10-17
Launch site
TAISC
Launch vehicle
Mass (kg)
RCS (m²)

External: N2YO · Heavens-Above · Gunter

§ Orbital elements

Epoch: 2026-09-20T15:28:26.539968Z

Period
106.59 min
Inclination
89.0058°
Eccentricity
0.0001710
Mean motion
13.51028663 rev/d
Perigee alt
1,067.2 km
Apogee alt
1,069.7 km
Semi-major
7,446.6 km
B*
1.0111e-4
RAAN
33.4550°
Arg perigee
101.3250°
Mean anomaly
258.8093°
Rev number
4,612

§ Raw data

QIANFAN-1021 66044U 25233M   26263.64475162  .00000077  00000+0  10111-3 0  99992 66044  89.0058  33.4550 0001710 101.3250 258.8093 13.51028663 46126

JSON: /api/v1/satellites/66044 · /tle

For live sub-satellite position, see the globe view (requires WebGL).

§ Visibility from observer

Set your observer location to see the next 7 days of passes ≥ 10°. The values pass through the URL so the page stays shareable.

No JS? Fill the form by hand. The geolocation button needs JavaScript.